Location: Newark
(50.1751°N, 5.6239°W)
Time: 11:25:03
(UTC+00:00)

Nauka - Pass Details

Date: 20 September 2021
Orbit: 418 x 423 km, 51.6° (Epoch: 18 October)

Event Time Altitude Azimuth Distance (km) Brightness Sun altitude
Rises 18:44:22 0° 218° (SW) 2,352 ? -4.0°
Reaches altitude 10° 18:46:38 10° 206° (SSW) 1,493 ? -4.3°
Maximum altitude 18:49:31 27° 146° (SE) 836 ? -4.8°
Drops below altitude 10° 18:52:27 10° 86° (E) 1,503 ? -5.3°
Enters shadow 18:53:18 - 80° (E) 1,816 ? -5.4°
